Location: Gleizolles
(44.4833°N, 6.7667°E)
Time: 01:40:39
(UTC+00:00)

S-56A Canister/Altair - Pass Details

Date: 04 July 2024
Orbit: 638 x 2488 km, 38.9° (Epoch: 24 July)

Event Time Altitude Azimuth Distance (km) Brightness Sun altitude
Rises 18:45:45 0° 258° (WSW) 3,354 11.7 4.5°
Reaches altitude 10° 18:47:55 10° 254° (WSW) 2,576 11.0 4.2°
Maximum altitude 18:53:55 57° 176° (S) 1,340 8.7 3.2°
Drops below altitude 10° 19:02:59 10° 101° (ESE) 3,821 10.5 1.8°
Sets 19:06:53 0° 98° (E) 5,112 11.1 1.2°
